Tracking 30107 objects as of 19-Jan-2025
HD Live streaming from Space Station
objects crossing your sky now

TITAN 4B CENTAUR R/B

Track TITAN 4B CENTAUR R/B now!
10-day predictions


NORAD ID: 25725
Int'l Code: 1999-023B
Perigee: 714.2 km
Apogee: 5,151.0 km
Inclination: 28.3 °
Period: 148.8 minutes
Semi major axis: 9303 km
RCS: Unknown
Launch date: April 30, 1999
Source: United States (US)
Launch site: AIR FORCE EASTERN TEST RANGE (AFETR)

Note: This is a ROCKET BODY
Your satellite tracking list
Your tracking list is empty




NASA's NSSDC Master Catalog

Two Line Element Set (TLE):
1 25725U 99023B   25018.46790844  .00000124  00000-0  24199-3 0  9997
2 25725  28.3191  27.1228 2384464  51.9975 327.2925  9.67442566207149
Source of the keplerian elements: McCants